OK,60,47,735,60,2014-10-01T01:40:00,0,28072062,190770
OK,60,47,735,60,2014-10-01T01:45:00,0,28072505,190770
OK,60,47,735,60,2014-10-01T01:50:00,0,28072954,190770
OK,60,47,735,60,2014-10-01T01:55:00,0,28073401,190770
OK,60,47,735,60,2014-10-01T02:05:00,0,28074167,190770
OK,61,47,735,61,2014-10-01T02:10:00,2,28074616,190770
OK,73,39,735,73,2014-10-01T02:15:00,1,28075056,190770
OK,73,39,735,73,2014-10-01T02:20:00,0,28075505,190770
OK,73,39,735,73,2014-10-01T02:25:00,0,28075954,190770
OK,73,39,735,73,2014-10-01T02:30:00,0,28076337,190770
OK,73,39,735,73,2014-10-01T02:35:00,0,28076786,190770
OK,73,39,735,73,2014-10-01T02:40:00,0,28077235,190770
OK,73,39,735,73,2014-10-01T02:45:00,0,28077684,190770
OK,73,39,735,73,2014-10-01T02:50:00,0,28078087,190770
OK,73,39,735,73,2014-10-01T02:55:00,0,28078536,190770
OK,47,61,735,47,2014-10-01T03:00:00,2,28078981,190770
OK,47,61,735,47,2014-10-01T03:05:00,2,28079429,190770
OK,46,62,735,46,2014-10-01T03:10:00,0,28079872,190770
OK,46,62,735,46,2014-10-01T03:20:00,0,28080655,190770
OK,82,34,735,82,2014-10-01T03:25:00,1,28081104,190770
OK,82,34,735,82,2014-10-01T03:30:00,1,28081552,190770
OK,54,53,735,54,2014-10-01T03:35:00,2,28082000,190770
OK,99,28,735,99,2014-10-01T03:40:00,2,28082449,190770
OK,44,65,735,44,2014-10-01T03:45:00,1,28082882,190770
OK,62,46,735,62,2014-10-01T03:50:00,2,28083314,190770
OK,69,41,735,69,2014-10-01T03:55:00,4,28083763,190770
OK,69,41,735,69,2014-10-01T04:00:00,4,28084212,190770
OK,52,55,735,52,2014-10-01T04:05:00,3,28084653,190770
OK,52,55,735,52,2014-10-01T04:10:00,5,28085078,190770
OK,52,55,735,52,2014-10-01T04:15:00,2,28085527,190770
OK,53,54,735,53,2014-10-01T04:20:00,3,28085972,190770
OK,70,40,735,70,2014-10-01T04:25:00,2,28086421,190770
OK,65,44,735,65,2014-10-01T04:30:00,1,28086863,190770
OK,47,61,735,47,2014-10-01T04:35:00,4,28087312,190770
OK,44,65,735,44,2014-10-01T04:40:00,10,28087757,190770
OK,40,71,735,40,2014-10-01T04:45:00,8,28088206,190770
OK,41,69,735,41,2014-10-01T04:50:00,7,28088630,190770
OK,41,69,735,41,2014-10-01T04:55:00,9,28089079,190770
OK,42,68,735,42,2014-10-01T05:00:00,9,28089509,190770
OK,42,68,735,42,2014-10-01T05:05:00,5,28089958,190770
OK,41,69,735,41,2014-10-01T05:10:00,3,28090407,190770
OK,45,63,735,45,2014-10-01T05:15:00,7,28090751,190770
OK,54,53,735,54,2014-10-01T05:20:00,14,28091200,190770
OK,56,51,735,56,2014-10-01T05:25:00,14,28091649,190770
OK,40,71,735,40,2014-10-01T05:30:00,12,28092066,190770
OK,43,66,735,43,2014-10-01T05:35:00,14,28092515,190770
OK,46,62,735,46,2014-10-01T05:40:00,21,28092959,190770
OK,45,63,735,45,2014-10-01T05:45:00,23,28093400,190770
OK,45,63,735,45,2014-10-01T05:50:00,16,28093831,190770
OK,59,48,735,59,2014-10-01T05:55:00,16,28094279,190770
OK,48,59,735,48,2014-10-01T06:00:00,11,28094691,190770
OK,46,62,735,46,2014-10-01T06:05:00,12,28095136,190770
OK,37,77,735,37,2014-10-01T06:10:00,8,28095583,190770
OK,40,71,735,40,2014-10-01T06:15:00,7,28096032,190770
OK,45,63,735,45,2014-10-01T06:20:00,9,28096445,190770
OK,45,63,735,45,2014-10-01T06:25:00,9,28096894,190770
OK,45,63,735,45,2014-10-01T06:30:00,10,28097328,190770
OK,42,68,735,42,2014-10-01T06:35:00,8,28097777,190770
OK,39,73,735,39,2014-10-01T06:40:00,6,28098226,190770
OK,41,69,735,41,2014-10-01T06:45:00,7,28098663,190770
OK,39,73,735,39,2014-10-01T06:50:00,10,28099107,190770
OK,41,69,735,41,2014-10-01T07:00:00,11,28099898,190770
OK,42,68,735,42,2014-10-01T07:10:00,8,28100654,190770
OK,43,66,735,43,2014-10-01T07:20:00,17,28101474,190770
OK,43,66,735,43,2014-10-01T07:25:00,13,28101923,190770
OK,38,75,735,38,2014-10-01T07:30:00,7,28102359,190770
OK,46,62,735,46,2014-10-01T07:35:00,7,28102808,190770
OK,48,59,735,48,2014-10-01T07:40:00,10,28103235,190770
OK,45,63,735,45,2014-10-01T07:45:00,12,28103682,190770
OK,45,63,735,45,2014-10-01T07:50:00,16,28104127,190770
OK,44,65,735,44,2014-10-01T07:55:00,16,28104572,190770
OK,51,56,735,51,2014-10-01T08:00:00,12,28105013,190770
OK,44,65,735,44,2014-10-01T08:05:00,12,28105458,190770
OK,45,63,735,45,2014-10-01T08:10:00,11,28105898,190770
OK,46,62,735,46,2014-10-01T08:15:00,10,28106347,190770
OK,44,65,735,44,2014-10-01T08:20:00,9,28106784,190770
OK,43,66,735,43,2014-10-01T08:25:00,8,28107190,190770
OK,43,66,735,43,2014-10-01T08:30:00,9,28107622,190770
OK,43,66,735,43,2014-10-01T08:35:00,18,28108071,190770
OK,44,65,735,44,2014-10-01T08:40:00,11,28108510,190770
OK,77,37,735,77,2014-10-01T08:45:00,7,28108959,190770
OK,52,55,735,52,2014-10-01T08:50:00,5,28109387,190770
OK,44,65,735,44,2014-10-01T09:00:00,10,28110179,190770
OK,59,48,735,59,2014-10-01T09:05:00,13,28110628,190770
OK,54,53,735,54,2014-10-01T09:10:00,12,28111051,190770
OK,47,61,735,47,2014-10-01T09:15:00,11,28111500,190770
OK,47,61,735,47,2014-10-01T09:20:00,8,28111929,190770
OK,44,65,735,44,2014-10-01T09:30:00,13,28112719,190770
OK,47,61,735,47,2014-10-01T09:35:00,11,28113168,190770
OK,68,42,735,68,2014-10-01T09:40:00,13,28113592,190770
OK,58,49,735,58,2014-10-01T09:45:00,10,28114041,190770
OK,76,37,735,76,2014-10-01T09:50:00,10,28114473,190770
OK,77,37,735,77,2014-10-01T10:00:00,13,28115276,190770
OK,72,39,735,72,2014-10-01T10:05:00,18,28115725,190770
OK,46,62,735,46,2014-10-01T10:10:00,22,28116137,190770
OK,46,62,735,46,2014-10-01T10:15:00,19,28116586,190770
OK,48,59,735,48,2014-10-01T10:20:00,11,28116994,190770
OK,48,59,735,48,2014-10-01T10:25:00,15,28117443,190770
OK,44,65,735,44,2014-10-01T10:30:00,20,28117868,190770
OK,47,61,735,47,2014-10-01T10:35:00,22,28118317,190770
OK,54,53,735,54,2014-10-01T10:40:00,18,28118762,190770
OK,65,44,735,65,2014-10-01T10:45:00,18,28119209,190770
OK,46,62,735,46,2014-10-01T10:50:00,11,28119653,190770
OK,47,61,735,47,2014-10-01T10:55:00,14,28120101,190770
OK,49,58,735,49,2014-10-01T11:00:00,13,28120549,190770
OK,43,66,735,43,2014-10-01T11:05:00,14,28120994,190770
OK,43,66,735,43,2014-10-01T11:10:00,18,28121381,190770
OK,42,68,735,42,2014-10-01T11:15:00,19,28121830,190770
OK,43,66,735,43,2014-10-01T11:20:00,12,28122268,190770
OK,43,66,735,43,2014-10-01T11:25:00,19,28122717,190770
OK,60,47,735,60,2014-10-01T11:30:00,23,28123158,190770
OK,62,46,735,62,2014-10-01T11:35:00,15,28123607,190770
OK,82,34,735,82,2014-10-01T11:40:00,20,28124039,190770
OK,66,43,735,66,2014-10-01T11:45:00,14,28124488,190770
OK,43,66,735,43,2014-10-01T11:50:00,14,28124890,190770
OK,43,66,735,43,2014-10-01T11:55:00,22,28125339,190770
OK,42,68,735,42,2014-10-01T12:00:00,19,28125768,190770
OK,43,66,735,43,2014-10-01T12:10:00,17,28126569,190770
OK,47,61,735,47,2014-10-01T12:15:00,12,28127018,190770
OK,45,63,735,45,2014-10-01T12:20:00,15,28127467,190770
OK,42,68,735,42,2014-10-01T12:25:00,13,28127916,190770
OK,42,68,735,42,2014-10-01T12:30:00,22,28128344,190770
OK,46,62,735,46,2014-10-01T12:35:00,22,28128793,190770
OK,46,62,735,46,2014-10-01T12:40:00,23,28129228,190770
OK,43,66,735,43,2014-10-01T12:45:00,22,28129677,190770
OK,44,65,735,44,2014-10-01T12:50:00,29,28130111,190770
OK,44,65,735,44,2014-10-01T12:55:00,28,28130560,190770
OK,47,61,735,47,2014-10-01T13:00:00,26,28130988,190770
OK,46,62,735,46,2014-10-01T13:05:00,26,28131437,190770
OK,46,62,735,46,2014-10-01T13:10:00,15,28131874,190770
OK,48,59,735,48,2014-10-01T13:15:00,24,28132323,190770
OK,45,63,735,45,2014-10-01T13:20:00,21,28132761,190770
OK,89,32,735,89,2014-10-01T13:25:00,27,28133208,190770
OK,89,32,735,89,2014-10-01T13:30:00,34,28133646,190770
OK,47,61,735,47,2014-10-01T13:35:00,36,28134095,190770
OK,47,61,735,47,2014-10-01T13:40:00,24,28134534,190770
OK,60,47,735,60,2014-10-01T13:45:00,22,28134983,190770
OK,77,37,735,77,2014-10-01T13:50:00,20,28135402,190770
OK,92,31,735,92,2014-10-01T13:55:00,22,28135851,190770
OK,92,31,735,92,2014-10-01T14:00:00,21,28136288,190770
OK,93,30,735,93,2014-10-01T14:05:00,17,28136737,190770
OK,54,53,735,54,2014-10-01T14:10:00,25,28137177,190770
OK,70,40,735,70,2014-10-01T14:15:00,24,28137626,190770
OK,48,59,735,48,2014-10-01T14:20:00,22,28138060,190770
OK,47,61,735,47,2014-10-01T14:25:00,19,28138509,190770
OK,87,32,735,87,2014-10-01T14:30:00,21,28138937,190770
OK,84,34,735,84,2014-10-01T14:35:00,28,28139386,190770
OK,55,52,735,55,2014-10-01T14:40:00,24,28139797,190770
OK,83,34,735,83,2014-10-01T14:45:00,25,28140246,190770
OK,82,34,735,82,2014-10-01T14:50:00,31,28140688,190770
OK,46,62,735,46,2014-10-01T14:55:00,23,28141136,190770
OK,48,59,735,48,2014-10-01T15:00:00,17,28141563,190770
OK,48,59,735,48,2014-10-01T15:05:00,14,28142012,190770
OK,47,61,735,47,2014-10-01T15:10:00,12,28142440,190770
OK,50,57,735,50,2014-10-01T15:15:00,11,28142889,190770
OK,84,34,735,84,2014-10-01T15:20:00,29,28143316,190770
OK,53,54,735,53,2014-10-01T15:25:00,31,28143765,190770
OK,44,65,735,44,2014-10-01T15:30:00,29,28144213,190770
OK,43,66,735,43,2014-10-01T15:35:00,24,28144662,190770
OK,65,44,735,65,2014-10-01T15:40:00,20,28145082,190770
OK,45,63,735,45,2014-10-01T15:45:00,24,28145497,190770
OK,42,68,735,42,2014-10-01T15:50:00,20,28145946,190770
OK,45,63,735,45,2014-10-01T15:55:00,12,28146395,190770
OK,45,63,735,45,2014-10-01T16:00:00,18,28146844,190770
OK,45,63,735,45,2014-10-01T16:05:00,13,28147252,190770
OK,46,62,735,46,2014-10-01T16:10:00,4,28147696,190770
OK,46,62,735,46,2014-10-01T16:15:00,13,28148145,190770
OK,66,43,735,66,2014-10-01T16:20:00,14,28148546,190770
OK,65,44,735,65,2014-10-01T16:25:00,10,28148995,190770
OK,41,69,735,41,2014-10-01T16:30:00,8,28149434,190770
OK,48,59,735,48,2014-10-01T16:35:00,6,28149883,190770
OK,51,56,735,51,2014-10-01T16:40:00,8,28150309,190770
OK,45,63,735,45,2014-10-01T16:45:00,14,28150758,190770
OK,49,58,735,49,2014-10-01T16:50:00,8,28151176,190770
OK,50,57,735,50,2014-10-01T16:55:00,12,28151625,190770
OK,73,39,735,73,2014-10-01T17:05:00,12,28152074,190770
OK,58,49,735,58,2014-10-01T17:10:00,12,28152523,190770
OK,56,51,735,56,2014-10-01T17:15:00,15,28152969,190770
OK,44,65,735,44,2014-10-01T17:20:00,11,28153416,190770
OK,41,69,735,41,2014-10-01T17:25:00,11,28153865,190770
OK,40,71,735,40,2014-10-01T17:30:00,6,28154275,190770
OK,47,61,735,47,2014-10-01T17:35:00,3,28154724,190770
OK,47,61,735,47,2014-10-01T17:40:00,7,28155166,190770
OK,47,61,735,47,2014-10-01T17:45:00,6,28155614,190770
OK,49,58,735,49,2014-10-01T17:50:00,5,28156032,190770
OK,43,66,735,43,2014-10-01T17:55:00,8,28156481,190770
OK,39,73,735,39,2014-10-01T18:00:00,8,28156929,190770
OK,39,73,735,39,2014-10-01T18:05:00,5,28157368,190770
OK,52,55,735,52,2014-10-01T18:10:00,4,28157798,190770
OK,45,63,735,45,2014-10-01T18:15:00,5,28158246,190770
OK,55,52,735,55,2014-10-01T18:20:00,11,28158690,190770
OK,64,44,735,64,2014-10-01T18:25:00,7,28159135,190770
OK,39,73,735,39,2014-10-01T18:35:00,9,28159917,190770
OK,42,68,735,42,2014-10-01T18:40:00,10,28160366,190770
OK,49,58,735,49,2014-10-01T18:45:00,5,28160815,190770
OK,55,52,735,55,2014-10-01T18:50:00,4,28161253,190770
OK,55,52,735,55,2014-10-01T18:55:00,6,28161702,190770
OK,59,48,735,59,2014-10-01T19:00:00,4,28162119,190770
OK,39,73,735,39,2014-10-01T19:05:00,3,28162568,190770
OK,40,71,735,40,2014-10-01T19:10:00,6,28162962,190770
OK,41,69,735,41,2014-10-01T19:15:00,7,28163401,190770
OK,43,66,735,43,2014-10-01T19:20:00,8,28163849,190770
OK,44,65,735,44,2014-10-01T19:25:00,8,28164298,190770
OK,48,59,735,48,2014-10-01T19:30:00,3,28164729,190770
OK,66,43,735,66,2014-10-01T19:35:00,3,28165178,190770
OK,53,54,735,53,2014-10-01T19:40:00,7,28165603,190770
OK,49,58,735,49,2014-10-01T19:45:00,8,28166051,190770
OK,46,62,735,46,2014-10-01T19:55:00,6,28166854,190770
OK,52,55,735,52,2014-10-01T20:00:00,6,28167303,190770
OK,60,47,735,60,2014-10-01T20:05:00,9,28167728,190770
OK,52,55,735,52,2014-10-01T20:10:00,7,28168165,190770
OK,49,58,735,49,2014-10-01T20:15:00,8,28168614,190770
OK,51,56,735,51,2014-10-01T20:20:00,7,28169059,190770
OK,42,68,735,42,2014-10-01T20:25:00,4,28169508,190770
OK,41,69,735,41,2014-10-01T20:30:00,6,28169956,190770
OK,41,69,735,41,2014-10-01T20:35:00,5,28170382,190770
OK,45,63,735,45,2014-10-01T20:40:00,0,28170827,190770
OK,62,46,735,62,2014-10-01T20:45:00,1,28171275,190770
OK,53,54,735,53,2014-10-01T20:50:00,2,28171712,190770
OK,44,65,735,44,2014-10-01T20:55:00,1,28172158,190770
OK,60,47,735,60,2014-10-01T21:00:00,1,28172606,190770
OK,46,62,735,46,2014-10-01T21:05:00,1,28173050,190770
OK,61,47,735,61,2014-10-01T21:10:00,4,28173498,190770
OK,77,37,735,77,2014-10-01T21:15:00,4,28173944,190770
OK,72,39,735,72,2014-10-01T21:20:00,5,28174388,190770
OK,81,35,735,81,2014-10-01T21:25:00,4,28174828,190770
OK,59,48,735,59,2014-10-01T21:35:00,1,28175659,190770
OK,50,57,735,50,2014-10-01T21:40:00,2,28176108,190770
OK,50,57,735,50,2014-10-01T21:45:00,2,28176557,190770
OK,49,58,735,49,2014-10-01T21:50:00,0,28177005,190770
OK,49,58,735,49,2014-10-01T21:55:00,0,28177801,190770
OK,49,58,735,49,2014-10-01T22:05:00,0,28178248,190770
OK,49,58,735,49,2014-10-01T22:10:00,0,28178697,190770
OK,53,54,735,53,2014-10-01T22:15:00,2,28179144,190770
OK,68,42,735,68,2014-10-01T22:20:00,2,28179578,190770
OK,95,30,735,95,2014-10-01T22:25:00,1,28180021,190770
OK,62,46,735,62,2014-10-01T22:35:00,1,28180866,190770
OK,62,46,735,62,2014-10-01T22:40:00,1,28181738,190770
OK,62,46,735,62,2014-10-01T22:45:00,0,28182185,190770
OK,62,46,735,62,2014-10-01T22:55:00,0,28182634,190770
OK,56,51,735,56,2014-10-01T23:00:00,1,28183485,190770
OK,57,50,735,57,2014-10-01T23:05:00,2,28183929,190770
OK,59,48,735,59,2014-10-01T23:10:00,1,28184378,190770
OK,64,44,735,64,2014-10-01T23:15:00,0,28184816,190770
OK,65,44,735,65,2014-10-01T23:25:00,0,28185261,190770
OK,65,44,735,65,2014-10-01T23:30:00,0,28186084,190770
OK,65,44,735,65,2014-10-01T23:35:00,0,28186533,190770
OK,65,44,735,65,2014-10-01T23:40:00,0,28186931,190770
OK,65,44,735,65,2014-10-01T23:45:00,0,28187373,190770
OK,65,44,735,65,2014-10-01T23:50:00,0,28187822,190770
OK,65,44,735,65,2014-10-01T23:55:00,0,28188263,190770
OK,65,44,735,65,2014-10-02T00:00:00,0,28188699,190770
OK,65,44,735,65,2014-10-02T00:10:00,0,28189148,190770
OK,65,44,735,65,2014-10-02T00:15:00,0,28189597,190770
OK,65,44,735,65,2014-10-02T00:20:00,0,28190019,190770
OK,65,44,735,65,2014-10-02T00:30:00,0,28190821,190770
OK,83,34,735,83,2014-10-02T00:35:00,0,28191270,190770
OK,83,34,735,83,2014-10-02T00:45:00,0,28192025,190770
OK,83,34,735,83,2014-10-02T00:50:00,0,28192474,190770
OK,83,34,735,83,2014-10-02T00:55:00,0,28192907,190770
OK,83,34,735,83,2014-10-02T01:05:00,0,28193718,190770
OK,83,34,735,83,2014-10-02T01:10:00,0,28194167,190770
OK,83,34,735,83,2014-10-02T01:15:00,0,28194616,190770
OK,83,34,735,83,2014-10-02T01:25:00,0,28195301,190770
OK,83,34,735,83,2014-10-02T01:30:00,0,28195750,190770
OK,83,34,735,83,2014-10-02T01:35:00,0,28196199,190770
OK,83,34,735,83,2014-10-02T01:40:00,0,28196483,190770
OK,83,34,735,83,2014-10-02T01:45:00,0,28196932,190770
OK,83,34,735,83,2014-10-02T01:50:00,0,28197355,190770
OK,83,34,735,83,2014-10-02T01:55:00,0,28197804,190770
OK,83,34,735,83,2014-10-02T02:00:00,0,28198252,190770
OK,83,34,735,83,2014-10-02T02:05:00,0,28198700,190770
OK,83,34,735,83,2014-10-02T02:10:00,0,28199149,190770
OK,83,34,735,83,2014-10-02T02:15:00,0,28199521,190770
OK,83,34,735,83,2014-10-02T02:20:00,0,28199963,190770
OK,83,34,735,83,2014-10-02T02:25:00,0,28200405,190770
OK,83,34,735,83,2014-10-02T02:30:00,0,28200848,190770
OK,83,34,735,83,2014-10-02T02:35:00,0,28201297,190770
OK,83,34,735,83,2014-10-02T02:45:00,0,28201728,190770
OK,56,51,735,56,2014-10-02T02:50:00,1,28202177,190770
OK,56,51,735,56,2014-10-02T02:55:00,0,28202626,190770
OK,56,51,735,56,2014-10-02T03:00:00,0,28203068,190770
OK,56,51,735,56,2014-10-02T03:05:00,0,28203516,190770
OK,56,51,735,56,2014-10-02T03:10:00,0,28203951,190770
OK,50,57,735,50,2014-10-02T03:30:00,1,28204400,190770
OK,52,55,735,52,2014-10-02T03:35:00,2,28204849,190770
OK,37,77,735,37,2014-10-02T03:40:00,1,28205298,190770
OK,56,51,735,56,2014-10-02T03:45:00,3,28205726,190770
OK,56,51,735,56,2014-10-02T03:55:00,0,28206556,190770
OK,56,51,735,56,2014-10-02T04:00:00,0,28207005,190770
OK,56,51,735,56,2014-10-02T04:05:00,0,28207454,190770
OK,70,40,735,70,2014-10-02T04:10:00,2,28207873,190770
OK,85,33,735,85,2014-10-02T04:15:00,1,28208322,190770
OK,80,35,735,80,2014-10-02T04:20:00,1,28208749,190770
OK,80,35,735,80,2014-10-02T04:25:00,1,28209198,190770
OK,45,63,735,45,2014-10-02T04:30:00,1,28209636,190770
OK,45,63,735,45,2014-10-02T04:35:00,0,28210085,190770
OK,87,32,735,87,2014-10-02T04:40:00,3,28210508,190770
OK,94,30,735,94,2014-10-02T04:45:00,1,28210957,190770
OK,94,30,735,94,2014-10-02T04:50:00,0,28211382,190770
OK,44,65,735,44,2014-10-02T05:00:00,1,28212204,190770
OK,76,37,735,76,2014-10-02T05:05:00,5,28212653,190770
OK,42,68,735,42,2014-10-02T05:10:00,1,28213082,190770
OK,41,69,735,41,2014-10-02T05:15:00,7,28213531,190770
OK,41,69,735,41,2014-10-02T05:20:00,1,28213969,190770
OK,42,68,735,42,2014-10-02T05:25:00,8,28214418,190770
OK,39,73,735,39,2014-10-02T05:30:00,2,28214831,190770
OK,39,73,735,39,2014-10-02T05:35:00,0,28215280,190770
OK,46,62,735,46,2014-10-02T05:40:00,12,28215696,190770
OK,45,63,735,45,2014-10-02T05:45:00,8,28216145,190770
OK,38,75,735,38,2014-10-02T05:50:00,0,28216484,190770
OK,50,57,735,50,2014-10-02T05:55:00,11,28216924,190770
OK,50,57,735,50,2014-10-02T06:00:00,8,28217371,190770
OK,95,30,735,95,2014-10-02T06:05:00,7,28217820,190770
OK,83,34,735,83,2014-10-02T06:10:00,3,28218259,190770
OK,40,71,735,40,2014-10-02T06:15:00,10,28218708,190770
OK,39,73,735,39,2014-10-02T06:20:00,8,28219128,190770
OK,73,39,735,73,2014-10-02T06:30:00,11,28219950,190770
OK,45,63,735,45,2014-10-02T06:35:00,13,28220399,190770
OK,43,66,735,43,2014-10-02T06:40:00,10,28220833,190770
OK,41,69,735,41,2014-10-02T06:45:00,7,28221282,190770
OK,43,66,735,43,2014-10-02T07:00:00,13,28221949,190770
OK,45,63,735,45,2014-10-02T07:05:00,10,28222094,190770
OK,60,47,735,60,2014-10-02T07:10:00,2,28222543,190770
OK,36,79,735,36,2014-10-02T07:15:00,0,28222992,190770
OK,36,79,735,36,2014-10-02T07:20:00,0,28223423,190770
OK,46,62,735,46,2014-10-02T07:25:00,8,28223858,190770
OK,46,62,735,46,2014-10-02T07:35:00,17,28224661,190770
OK,44,65,735,44,2014-10-02T07:40:00,5,28225110,190770
OK,69,41,735,69,2014-10-02T07:50:00,10,28225881,190770
OK,52,55,735,52,2014-10-02T07:55:00,11,28226330,190770
OK,44,65,735,44,2014-10-02T08:00:00,3,28226771,190770
OK,60,47,735,60,2014-10-02T08:05:00,12,28227220,190770
OK,51,56,735,51,2014-10-02T08:10:00,2,28227635,190770
OK,73,39,735,73,2014-10-02T08:20:00,0,28228443,190770
OK,45,63,735,45,2014-10-02T08:25:00,9,28228892,190770
OK,43,66,735,43,2014-10-02T08:30:00,3,28229302,190770
OK,54,53,735,54,2014-10-02T08:40:00,7,28230101,190770
OK,36,79,735,36,2014-10-02T08:45:00,0,28230550,190770
OK,60,47,735,60,2014-10-02T08:50:00,9,28230916,190770
OK,58,49,735,58,2014-10-02T08:55:00,4,28231363,190770
OK,41,69,735,41,2014-10-02T09:00:00,7,28231788,190770
OK,81,35,735,81,2014-10-02T09:15:00,2,28232579,190770
OK,81,35,735,81,2014-10-02T09:20:00,0,28233028,190770
OK,74,38,735,74,2014-10-02T09:25:00,7,28233477,190770
OK,78,36,735,78,2014-10-02T09:30:00,2,28233901,190770
OK,58,49,735,58,2014-10-02T09:40:00,3,28234683,190770
OK,76,37,735,76,2014-10-02T09:45:00,17,28235132,190770
OK,64,44,735,64,2014-10-02T09:50:00,9,28235559,190770
OK,77,37,735,77,2014-10-02T09:55:00,13,28236008,190770
OK,75,38,735,75,2014-10-02T10:00:00,4,28236451,190770
OK,75,38,735,75,2014-10-02T10:05:00,0,28236897,190770
OK,73,39,735,73,2014-10-02T10:10:00,11,28237300,190770
OK,68,42,735,68,2014-10-02T10:15:00,14,28237748,190770
OK,64,44,735,64,2014-10-02T10:20:00,14,28238197,190770
OK,70,40,735,70,2014-10-02T10:25:00,6,28238644,190770
OK,72,39,735,72,2014-10-02T10:30:00,2,28239085,190770
OK,76,37,735,76,2014-10-02T10:35:00,11,28239534,190770
OK,67,42,735,67,2014-10-02T10:40:00,9,28239964,190770
OK,67,42,735,67,2014-10-02T10:45:00,15,28240413,190770
OK,86,33,735,86,2014-10-02T10:50:00,3,28240857,190770
OK,66,43,735,66,2014-10-02T10:55:00,15,28241306,190770
OK,81,35,735,81,2014-10-02T11:00:00,3,28241738,190770
OK,81,35,735,81,2014-10-02T11:05:00,0,28242186,190770
OK,56,51,735,56,2014-10-02T11:10:00,16,28242582,190770
OK,40,71,735,40,2014-10-02T11:15:00,9,28243031,190770
OK,75,38,735,75,2014-10-02T11:20:00,15,28243480,190770
OK,81,35,735,81,2014-10-02T11:25:00,9,28243805,190770
OK,89,32,735,89,2014-10-02T11:30:00,0,28244243,190770
OK,72,39,735,72,2014-10-02T11:35:00,9,28244672,190770
OK,72,39,735,72,2014-10-02T11:40:00,4,28245121,190770
OK,72,39,735,72,2014-10-02T11:45:00,0,28245570,190770
OK,82,34,735,82,2014-10-02T11:50:00,15,28245976,190770
OK,87,32,735,87,2014-10-02T11:55:00,14,28246425,190770
OK,86,33,735,86,2014-10-02T12:00:00,18,28246862,190770
OK,84,34,735,84,2014-10-02T12:05:00,6,28247310,190770
OK,59,48,735,59,2014-10-02T12:10:00,0,28247757,190770
OK,81,35,735,81,2014-10-02T12:15:00,23,28248187,190770
OK,81,35,735,81,2014-10-02T12:20:00,12,28248636,190770
OK,65,44,735,65,2014-10-02T12:25:00,15,28249083,190770
OK,68,42,735,68,2014-10-02T12:30:00,2,28249511,190770
OK,87,32,735,87,2014-10-02T12:35:00,28,28249954,190770
OK,83,34,735,83,2014-10-02T12:45:00,28,28251103,190770
OK,69,41,735,69,2014-10-02T13:20:00,24,28251631,190770
OK,79,36,735,79,2014-10-02T13:30:00,20,28252097,190770
OK,91,31,735,91,2014-10-02T13:35:00,8,28252233,190770
OK,89,32,735,89,2014-10-02T13:40:00,0,28252681,190770
OK,70,40,735,70,2014-10-02T13:50:00,22,28253540,190770
OK,82,34,735,82,2014-10-02T13:55:00,23,28253988,190770
OK,88,32,735,88,2014-10-02T14:15:00,22,28254843,190770
OK,88,32,735,88,2014-10-02T14:20:00,25,28255292,190770
OK,95,30,735,95,2014-10-02T14:25:00,7,28255740,190770
OK,80,35,735,80,2014-10-02T14:30:00,29,28256169,190770
OK,77,37,735,77,2014-10-02T14:35:00,26,28256616,190770
OK,78,36,735,78,2014-10-02T14:40:00,19,28257046,190770
OK,74,38,735,74,2014-10-02T14:45:00,23,28257495,190770
OK,70,40,735,70,2014-10-02T14:50:00,29,28257936,190770
OK,81,35,735,81,2014-10-02T14:55:00,25,28258383,190770
OK,77,37,735,77,2014-10-02T15:00:00,26,28258817,190770
OK,73,39,735,73,2014-10-02T15:05:00,15,28259263,190770
OK,69,41,735,69,2014-10-02T15:10:00,14,28259711,190770
OK,66,43,735,66,2014-10-02T15:15:00,26,28260158,190770
OK,63,45,735,63,2014-10-02T15:20:00,12,28260592,190770
OK,67,42,735,67,2014-10-02T15:25:00,21,28261035,190770
OK,73,39,735,73,2014-10-02T15:35:00,18,28261844,190770
OK,82,34,735,82,2014-10-02T15:40:00,8,28262293,190770
OK,73,39,735,73,2014-10-02T15:45:00,23,28262740,190770
OK,47,61,735,47,2014-10-02T15:50:00,9,28263184,190770
OK,47,61,735,47,2014-10-02T15:55:00,0,28264019,190770
OK,71,40,735,71,2014-10-02T16:05:00,16,28264467,190770
OK,61,47,735,61,2014-10-02T16:10:00,13,28264916,190770
OK,52,55,735,52,2014-10-02T16:15:00,4,28265352,190770
OK,72,39,735,72,2014-10-02T16:25:00,11,28266190,190770
OK,73,39,735,73,2014-10-02T16:30:00,15,28266639,190770
OK,72,39,735,72,2014-10-02T16:35:00,8,28267411,190770
OK,75,38,735,75,2014-10-02T16:45:00,7,28267860,190770
OK,77,37,735,77,2014-10-02T16:50:00,2,28268309,190770
OK,71,40,735,71,2014-10-02T16:55:00,6,28268751,190770
OK,71,40,735,71,2014-10-02T17:00:00,8,28269200,190770
OK,71,40,735,71,2014-10-02T17:05:00,5,28269649,190770
OK,71,40,735,71,2014-10-02T17:10:00,0,28270084,190770
OK,71,40,735,71,2014-10-02T17:15:00,0,28270531,190770
OK,61,47,735,61,2014-10-02T17:20:00,9,28270967,190770
OK,59,48,735,59,2014-10-02T17:25:00,2,28271415,190770
OK,55,52,735,55,2014-10-02T17:30:00,2,28271845,190770
OK,56,51,735,56,2014-10-02T17:35:00,0,28272294,190770
OK,56,51,735,56,2014-10-02T17:40:00,0,28272729,190770
OK,59,48,735,59,2014-10-02T17:45:00,5,28273171,190770
OK,34,84,735,34,2014-10-02T17:50:00,1,28273619,190770
OK,55,52,735,55,2014-10-02T17:55:00,5,28274065,190770
OK,59,48,735,59,2014-10-02T18:00:00,2,28274514,190770
OK,57,50,735,57,2014-10-02T18:05:00,4,28274843,190770
OK,57,50,735,57,2014-10-02T18:10:00,0,28275288,190770